{"data":{"norad_id":63667,"epoch":"2026-05-24T12:29:10.000896Z","epoch_age_seconds":112627,"freshness":"FRESH","line1":"1 63667U 25085D   26144.52025464  .00122853  00000+0  94677-3 0  9999","line2":"2 63667  43.0012 181.7278 0001217 251.3159 108.7576 15.70841797 62079","mean_motion":15.70841797,"eccentricity":0.0001217,"inclination_deg":43.0012,"raan_deg":181.7278,"arg_perigee_deg":251.3159,"mean_anomaly_deg":108.7576,"bstar":0.00094677,"rev_number":6207,"period_min":91.670593611025,"perigee_km":355.67032131432,"apogee_km":357.30952950797,"semimajor_km":6734.6269254111,"source":"CELESTRAK","updated_at":"2026-05-25T13:38:20.090667Z"}}